Waarnemingen

Advertentie
Mijn weer
Laupheim, Duitsland (10837): temperatuur & dauwpunt: 15.01.2017 11:00:00 - 21.01.2017 11:00:00 (CET)Laupheim, Duitsland (10837): windsnelheid & windstoten: 15.01.2017 11:00:00 - 21.01.2017 11:00:00 (CET)Laupheim, Duitsland (10837): windrichting: 15.01.2017 11:00:00 - 21.01.2017 11:00:00 (CET)Laupheim, Duitsland (10837): luchtdruk: 15.01.2017 11:00:00 - 21.01.2017 11:00:00 (CET)Laupheim, Duitsland (10837): zicht: 15.01.2017 11:00:00 - 21.01.2017 11:00:00 (CET)
Datum & Tijd tt [°C] td [°C] ff [km/u] ff [kn] fx [km/u] fx [kn] dd ppp [hPa] vv [km]
21.01.2017 11:00:00 -11,0 -12,7 4 2 - - ZZW 1035,3 0,4
21.01.2017 10:00:00 -11,2 -12,8 4 2 - - N 1035,3 0,3
21.01.2017 09:00:00 -11,1 -12,6 4 2 - - N 1035,0 0,1
21.01.2017 08:00:00 -11,3 -12,8 4 2 - - N 1034,9 0,1
21.01.2017 07:00:00 -11,3 -12,8 4 2 - - N 1034,5 0,1
21.01.2017 06:00:00 -11,4 -12,9 4 2 - - N 1034,5 0,1
21.01.2017 05:00:00 -11,6 -13,1 4 2 - - WZW 1034,9 0,1
21.01.2017 04:00:00 -11,4 -12,9 4 2 - - ZW 1034,7 0,1
21.01.2017 03:00:00 -11,4 -12,9 4 2 - - WNW 1035,3 0,1
21.01.2017 02:00:00 -11,3 -12,8 4 2 - - WZW 1035,3 0,1
21.01.2017 01:00:00 -11,6 -13,1 4 2 - - N 1035,9 0,2
21.01.2017 00:00:00 -10,9 -12,3 4 2 - - N 1035,7 0,2
20.01.2017 23:00:00 -10,5 -11,8 7 4 - - ZW 1035,5 0,3
20.01.2017 22:00:00 -11,1 -12,3 7 4 - - ZW 1035,7 0,4
20.01.2017 21:00:00 -11,9 -12,9 4 2 - - ZZW 1035,9 0,8
20.01.2017 20:00:00 -11,4 -12,7 4 2 - - W 1035,8 2,0
20.01.2017 19:00:00 -11,0 -12,0 4 2 - - W 1035,7 4,0
20.01.2017 18:00:00 -9,2 -10,5 4 2 - - Z 1035,1 4,0
20.01.2017 17:00:00 -7,9 -9,9 7 4 - - ZO 1034,6 6
20.01.2017 16:00:00 -7,0 -9,8 7 4 - - ZO 1034,5 7
20.01.2017 15:00:00 -7,3 -9,7 7 4 - - OZO 1034,5 6
20.01.2017 14:00:00 -7,6 -10,0 7 4 - - O 1034,9 5
20.01.2017 13:00:00 -7,7 -10,4 7 4 - - OZO 1035,4 5
20.01.2017 12:00:00 -8,3 -10,3 4 2 - - N 1035,9 4,5
20.01.2017 11:00:00 -9,2 -10,8 11 6 - - ONO 1036,7 4,5
20.01.2017 10:00:00 -9,5 -10,9 13 7 - - ONO 1036,3 3,5
20.01.2017 09:00:00 -10,3 -11,8 7 4 - - NO 1036,6 4,5
20.01.2017 08:00:00 -10,9 -12,5 4 2 - - NNO 1036,2 4,0
20.01.2017 07:00:00 -11,8 -13,5 4 2 - - ONO 1036,2 4,0
20.01.2017 06:00:00 -13,2 -14,8 0 0 - - N 1036,5 4,0
20.01.2017 05:00:00 -13,2 -14,6 4 2 - - N 1036,6 4,0
20.01.2017 04:00:00 -12,8 -14,4 0 0 - - N 1036,7 4,0
20.01.2017 03:00:00 -12,3 -13,4 7 4 - - NNO 1036,7 4,4
20.01.2017 02:00:00 -12,6 -13,9 4 2 - - ONO 1036,7 4,6
20.01.2017 01:00:00 -12,1 -13,6 4 2 - - NNO 1036,6 5
20.01.2017 00:00:00 -11,9 -13,0 4 2 - - NNO 1036,8 5
19.01.2017 23:00:00 -11,2 -12,7 4 2 - - NNO 1036,9 6
19.01.2017 22:00:00 -10,8 -12,1 4 2 - - ONO 1036,9 7
19.01.2017 21:00:00 -9,9 -12,1 11 6 - - NO 1036,7 7
19.01.2017 20:00:00 -8,0 -10,8 7 4 - - ONO 1036,2 7
19.01.2017 19:00:00 -8,3 -11,0 14 8 - - NO 1036,2 7
19.01.2017 18:00:00 -8,2 -11,0 7 4 - - NO 1036,0 7
19.01.2017 17:00:00 -7,2 -11,0 7 4 - - NO 1035,5 8
19.01.2017 16:00:00 -5,7 -10,2 4 2 - - NO 1035,0 9
19.01.2017 15:00:00 -5,9 -10,0 18 10 - - O 1035,0 9
19.01.2017 14:00:00 -7,0 -9,7 18 10 - - O 1035,4 9
19.01.2017 13:00:00 -7,0 -9,5 18 10 - - NO 1035,7 7
19.01.2017 12:00:00 -7,1 -9,5 18 10 - - ONO 1036,2 6
19.01.2017 11:00:00 -7,4 -9,5 14 8 - - NO 1036,4 6
19.01.2017 10:00:00 -8,1 -10,0 18 10 - - NO 1036,5 7
19.01.2017 09:00:00 -8,0 -9,9 14 8 - - NO 1036,2 7
19.01.2017 08:00:00 -7,6 -9,7 14 8 - - NO 1035,7 6
19.01.2017 07:00:00 -6,7 -9,1 18 10 - - ONO 1035,2 8
19.01.2017 06:00:00 -6,3 -9,0 22 12 - - ONO 1034,9 9
19.01.2017 05:00:00 -6,2 -9,0 22 12 - - ONO 1035,2 10
19.01.2017 04:00:00 -6,0 -9,0 25 14 - - O 1035,1 10
19.01.2017 03:00:00 -5,9 -8,7 22 12 - - ONO 1035,0 10
19.01.2017 02:00:00 -5,7 -8,6 25 14 - - O 1034,7 10
19.01.2017 01:00:00 -5,6 -8,7 21 11 - - O 1034,7 10
19.01.2017 00:00:00 -5,7 -9,3 29 16 - - O 1035,2 13
18.01.2017 23:00:00 -5,4 -9,4 29 16 - - O 1035,4 14
18.01.2017 22:00:00 -5,4 -9,3 29 16 - - ONO 1035,3 16
18.01.2017 21:00:00 -5,2 -9,6 25 14 47 25 O 1035,6 18
18.01.2017 20:00:00 -5,0 -9,7 32 18 47 25 O 1035,5 21
18.01.2017 19:00:00 -5,1 -9,5 29 16 - - ONO 1035,4 21
18.01.2017 18:00:00 -4,8 -9,3 29 16 - - ONO 1035,5 21
18.01.2017 17:00:00 -4,7 -9,6 32 18 50 27 ONO 1035,3 21
18.01.2017 16:00:00 -4,6 -8,9 29 16 - - ONO 1035,2 25
18.01.2017 15:00:00 -4,3 -9,3 36 19 68 37 ONO 1035,0 25
18.01.2017 14:00:00 -4,5 -9,4 40 21 54 29 O 1034,9 25
18.01.2017 13:00:00 -4,8 -9,2 32 18 - - ONO 1035,2 25
18.01.2017 12:00:00 -5,1 -9,3 36 19 54 29 ONO 1035,6 25
18.01.2017 11:00:00 -5,4 -9,6 29 16 - - ONO 1036,0 22
18.01.2017 10:00:00 -6,0 -9,8 29 16 - - ONO 1035,9 22
18.01.2017 09:00:00 -6,8 -10,4 25 14 - - ONO 1035,9 25
18.01.2017 08:00:00 -7,5 -10,6 25 14 - - ONO 1035,4 20
18.01.2017 07:00:00 -8,1 -10,8 25 14 - - ONO 1035,4 20
18.01.2017 06:00:00 -7,4 -10,3 18 10 - - NO 1035,3 20
18.01.2017 05:00:00 -7,3 -10,2 18 10 - - ONO 1035,4 20
18.01.2017 04:00:00 -7,3 -10,2 18 10 - - ONO 1035,3 20
18.01.2017 03:00:00 -8,8 -10,7 14 8 - - ONO 1036,1 20
18.01.2017 02:00:00 -9,2 -11,3 18 10 - - ONO 1036,4 20
18.01.2017 01:00:00 -8,0 -10,3 22 12 - - ONO 1035,8 20
18.01.2017 00:00:00 -8,2 -10,5 22 12 - - ONO 1035,9 20
17.01.2017 23:00:00 -7,6 -9,9 25 14 - - ONO 1035,6 20
17.01.2017 22:00:00 -7,0 -9,3 29 16 - - NO 1035,2 20
17.01.2017 21:00:00 -6,9 -9,4 22 12 - - ONO 1035,0 20
17.01.2017 20:00:00 -7,1 -9,8 22 12 - - NO 1034,9 22
17.01.2017 19:00:00 -7,0 -9,8 14 8 - - NO 1034,8 25
17.01.2017 18:00:00 -6,5 -9,7 22 12 - - NO 1034,0 10
17.01.2017 17:00:00 -5,6 -9,1 25 14 - - ONO 1033,2 27
17.01.2017 16:00:00 -5,4 -8,7 22 12 - - NO 1033,0 25
17.01.2017 15:00:00 -6,0 -9,3 22 12 - - NO 1033,0 20
17.01.2017 14:00:00 -6,4 -9,0 22 12 - - NO 1033,2 9
17.01.2017 13:00:00 -6,6 -9,3 18 10 - - NO 1033,4 12
17.01.2017 12:00:00 -7,0 -9,6 18 10 - - ONO 1033,9 18
17.01.2017 11:00:00 -7,6 -10,1 25 14 - - ONO 1033,9 15
17.01.2017 10:00:00 -7,6 -9,9 18 10 - - NO 1033,7 12
17.01.2017 09:00:00 -7,9 -9,9 18 10 - - NO 1033,4 10
17.01.2017 08:00:00 -7,8 -9,9 18 10 - - NO 1032,8 10
17.01.2017 07:00:00 -7,4 -9,6 25 14 - - NO 1032,1 10
17.01.2017 06:00:00 -6,8 -8,9 22 12 - - NO 1031,3 10
17.01.2017 05:00:00 -6,1 -8,0 22 12 - - NO 1030,7 9
17.01.2017 04:00:00 -5,5 -7,4 22 12 - - NO 1030,0 9
17.01.2017 03:00:00 -5,1 -7,0 22 12 - - NO 1029,5 9
17.01.2017 02:00:00 -4,6 -6,5 18 10 - - NO 1029,1 10
17.01.2017 01:00:00 -5,1 -6,7 11 6 - - NO 1029,0 10
17.01.2017 00:00:00 -5,2 -6,8 14 8 - - NO 1028,8 10
16.01.2017 23:00:00 -5,2 -6,8 18 10 - - NO 1028,6 12
16.01.2017 22:00:00 -5,9 -7,6 7 4 - - NNO 1028,5 12
16.01.2017 21:00:00 -5,7 -7,7 4 2 - - NNO 1028,2 12
16.01.2017 20:00:00 -7,0 -8,9 7 4 - - NNO 1028,1 15
16.01.2017 19:00:00 -6,1 -9,2 4 2 - - NO 1027,3 10
16.01.2017 18:00:00 -6,6 -9,6 7 4 - - NNO 1026,9 10
16.01.2017 17:00:00 -5,5 -9,8 7 4 - - NNO 1026,2 10
16.01.2017 16:00:00 -4,3 -7,1 7 4 - - NNO 1025,5 10
16.01.2017 15:00:00 -3,7 -7,2 11 6 - - NO 1024,9 10
16.01.2017 14:00:00 -3,4 -6,5 18 10 - - NO 1024,5 9
16.01.2017 13:00:00 -3,9 -5,4 4 2 - - NNO 1024,7 1,8
16.01.2017 12:00:00 -4,0 -5,8 4 2 - - NNO 1024,8 3,6
16.01.2017 11:00:00 -4,3 -5,9 4 2 - - O 1025,0 3,5
16.01.2017 10:00:00 -5,5 -6,5 0 0 - - N 1025,0 3,2
16.01.2017 09:00:00 -5,9 -6,7 0 0 - - N 1024,9 5
16.01.2017 08:00:00 -5,5 -6,4 4 2 - - Z 1024,3 6
16.01.2017 07:00:00 -5,4 -6,3 4 2 - - ZZW 1023,8 3,2
16.01.2017 06:00:00 -5,6 -6,4 4 2 - - N 1023,7 1,6
16.01.2017 05:00:00 -6,1 -6,8 7 4 - - W 1023,5 6
16.01.2017 04:00:00 -5,1 -6,1 7 4 - - ZW 1023,3 7
16.01.2017 03:00:00 -4,6 -5,4 5 3 - - WZW 1023,5 3,8
16.01.2017 02:00:00 -4,8 -6,2 7 4 - - ZW 1023,3 4,8
16.01.2017 01:00:00 -5,4 -6,9 11 6 - - ZW 1023,8 8
16.01.2017 00:00:00 -5,3 -7,0 11 6 - - ZW 1024,1 15
15.01.2017 23:00:00 -7,0 -8,1 7 4 - - ZZW 1024,8 20
15.01.2017 22:00:00 -7,3 -8,1 11 6 - - ZW 1024,9 20
15.01.2017 21:00:00 -6,9 -8,0 7 4 - - ZW 1024,7 20
15.01.2017 20:00:00 -6,2 -7,6 7 4 - - ZW 1024,5 25
15.01.2017 19:00:00 -4,9 -7,4 7 4 - - WZW 1024,1 25
15.01.2017 18:00:00 -3,4 -5,7 7 4 - - W 1023,4 25
15.01.2017 17:00:00 -2,1 -4,8 11 6 - - W 1023,0 25
15.01.2017 16:00:00 -1,5 -4,6 14 8 - - WZW 1022,6 25
15.01.2017 15:00:00 -1,3 -5,2 11 6 - - WZW 1022,3 20
15.01.2017 14:00:00 -0,9 -4,7 18 10 - - WZW 1022,1 20
15.01.2017 13:00:00 -2,6 -3,6 14 8 - - WZW 1022,6 15
15.01.2017 12:00:00 -1,9 -4,5 18 10 - - WZW 1022,6 20
15.01.2017 11:00:00 -3,3 -4,7 11 6 - - ZW 1022,9 25

tt = temperatuur
td = dauwpunt
ff = windsnelheid
fx = windstoten
dd = windrichting
ppp = luchtdruk
vv = zicht

Weerstations in de omgeving